Regional Weather Roundup
Issued by NWS Little Rock, AR

Home | Current Version | Previous Version | Text Only | Print | Product List | Glossary On
Versions: 1 2 3 4 5 6 7 8 9 10 11 12 13 14 15 16 17 18 19 20 21 22 23 24 25 26 27 28 29 30 31 32 33 34 35 36 37 38 39 40 41 42 43 44 45 46 47 48 49 50
000
ASUS44 KLZK 280205
RWRLZK

WEATHER ROUNDUP FOR ARKANSAS
NATIONAL WEATHER SERVICE LITTLE ROCK AR
800 PM CST THU NOV 27 2014

NOTE: "FAIR" INDICATES FEW OR NO CLOUDS BELOW 12,000 FEET WITH NO
SIGNIFICANT WEATHER AND/OR OBSTRUCTIONS TO VISIBILITY.

ARZ001-003-010-029-280300-
NORTHWEST ARKANSAS

CITY           SKY/WX    TMP DP  RH WIND       PRES   REMARKS
FAYETTEVILLE   CLEAR     29  24  82 CALM      30.38F
FORT SMITH     CLEAR     39  26  59 E6        30.40F
HARRISON       CLEAR     34  20  56 CALM      30.39S
BENTONVILLE    CLEAR     34  19  55 SE8       30.36F WCI  27
ROGERS         CLEAR     35  21  56 SE7       30.36F WCI  29
SILOAM SPGS    CLEAR     34  18  51 SE7       30.37F WCI  28
HIGHFILL       CLEAR     33  21  61 SE7       30.35F WCI  27
SPRINGDALE     CLEAR     36  18  48 SE6       30.39F
$$

ARZ004-005-016-280300-
NORTH CENTRAL ARKANSAS

CITY           SKY/WX    TMP DP  RH WIND       PRES   REMARKS
BATESVILLE     CLEAR     36  27  69 SE3       30.44S
FLIPPIN        CLEAR     30  21  69 CALM      30.42S
MTN HOME       CLEAR     34  24  67 CALM      30.40F
$$

ARZ040-041-280300-
WEST CENTRAL ARKANSAS

CITY           SKY/WX    TMP DP  RH WIND       PRES   REMARKS
MENA           CLEAR     39  30  70 CALM      30.41S
MOUNT IDA      CLEAR     36  28  73 CALM      30.40F
$$

ARZ009-017-025-026-028-280300-
NORTHEAST ARKANSAS

CITY           SKY/WX    TMP DP  RH WIND       PRES   REMARKS
CORNING        FAIR      32  30  93 E7        30.47R WCI  26
JONESBORO      CLEAR     33  30  88 CALM      30.46F
NEWPORT        CLEAR     36  32  85 SE6       30.47S FOG
WALNUT RIDGE   CLEAR     36  27  69 S6        30.46S
BLYTHEVILLE    CLEAR     38  28  67 SE7       30.48F
$$

ARZ022-023-033-042-044-280300-
CENTRAL ARKANSAS

CITY           SKY/WX    TMP DP  RH WIND       PRES   REMARKS
LITTLE ROCK    PTCLDY    39  29  67 S6        30.47S
N LITTLE ROCK  PTCLDY    39  31  72 S6        30.47S
JACKSONVILLE   CLEAR     33  28  83 S3        30.45F
SEARCY         CLEAR     33  29  85 CALM      30.47F
HOT SPRINGS    CLEAR     37  29  72 E5        30.45F
RUSSELLVILLE   CLEAR     34  28  79 CALM      30.43F
CLINTON        FAIR      32  28  86 CALM      30.46S
$$

ARZ036-280300-
EAST ARKANSAS

CITY           SKY/WX    TMP DP  RH WIND       PRES   REMARKS
WEST MEMPHIS   CLEAR     34  30  85 S3        30.47F
$$

ARZ050-053-066-070-073-280300-
SOUTHWEST ARKANSAS

CITY           SKY/WX    TMP DP  RH WIND       PRES   REMARKS
ARKADELPHIA    FAIR      36  35  96 CALM      30.48S
CAMDEN         CLEAR     34  32  93 CALM      30.48S
TEXARKANA      CLEAR     42  30  62 E3        30.44S
EL DORADO      CLEAR     35  32  88 CALM      30.47S
DE QUEEN       CLEAR     36  32  85 CALM      30.41F
$$

ARZ056-057-069-280300-
SOUTHEAST ARKANSAS

CITY           SKY/WX    TMP DP  RH WIND       PRES   REMARKS
PINE BLUFF     CLEAR     36  32  85 CALM      30.48F
STUTTGART      CLEAR     39  30  70 S6        30.47F
MONTICELLO     CLEAR     37  31  78 CALM      30.48S

$$





USA.gov is the U.S. government's official web portal to all federal, state and local government web resources and services.